{"data":{"norad_id":58864,"epoch":"2026-05-25T03:13:45.336864Z","epoch_age_seconds":60542,"freshness":"FRESH","line1":"1 58864U 24019M   26145.13455251 -.00000297  00000+0 -12553-5 0  9991","line2":"2 58864  43.0018 177.2062 0001119 274.3000  85.7724 15.27577597130778","mean_motion":15.27577597,"eccentricity":0.0001119,"inclination_deg":43.0018,"raan_deg":177.2062,"arg_perigee_deg":274.3,"mean_anomaly_deg":85.7724,"bstar":-1.2553e-6,"rev_number":13077,"period_min":94.26689700268,"perigee_km":482.28852396624,"apogee_km":483.82405902488,"semimajor_km":6861.1932914956,"source":"CELESTRAK","updated_at":"2026-05-25T13:38:18.759591Z"}}